| time (UTC) | temp C | wind direction | speed KPH | gust KPH | rain 1hr cm | rain 24hr cm | rain mn cm | humidity % | barometer mb |
| 20260510145021 | 17 | 57 | 0.0 | 12.9 | 0.00 | 0.00 | 0.00 | 49 | 1017.4 |
| 20260510144527 | 17 | 46 | 0.0 | 12.9 | 0.00 | 0.00 | 0.00 | 50 | 1017.4 |
| 20260510144049 | 17 | 72 | 1.6 | 12.9 | 0.00 | 0.00 | 0.00 | 50 | 1017.5 |
| 20260510143534 | 17 | 66 | 1.6 | 8.0 | 0.00 | 0.00 | 0.00 | 50 | 1017.4 |
| 20260510143020 | 17 | 53 | 1.6 | 6.4 | 0.00 | 0.00 | 0.00 | 50 | 1017.5 |
| 20260510142526 | 17 | 338 | 0.0 | 4.8 | 0.00 | 0.03 | 0.00 | 51 | 1017.4 |
| 20260510142030 | 17 | 80 | 0.0 | 4.8 | 0.00 | 0.03 | 0.00 | 51 | 1017.3 |
| 20260510141556 | 17 | 62 | 0.0 | 3.2 | 0.00 | 0.03 | 0.00 | 54 | 1017.3 |
| 20260510141041 | 17 | 62 | 0.0 | 8.0 | 0.00 | 0.03 | 0.00 | 54 | 1017.2 |
| 20260510140526 | 17 | 53 | 1.6 | 8.0 | 0.00 | 0.03 | 0.00 | 54 | 1017.1 |
| 20260510140031 | 17 | 20 | 0.0 | 3.2 | 0.00 | 0.03 | 0.00 | 58 | 1017.0 |
| 20260510135517 | 17 | 60 | 0.0 | 3.2 | 0.00 | 0.03 | 0.00 | 59 | 1016.9 |
| 20260510135021 | 17 | 44 | 0.0 | 3.2 | 0.00 | 0.03 | 0.00 | 60 | 1016.7 |
| 20260510134531 | 16 | 55 | 0.0 | 3.2 | 0.00 | 0.03 | 0.00 | 62 | 1016.6 |
| 20260510134053 | 16 | 57 | 0.0 | 3.2 | 0.00 | 0.03 | 0.00 | 63 | 1016.5 |
| 20260510133538 | 16 | 60 | 0.0 | 3.2 | 0.00 | 0.03 | 0.00 | 63 | 1016.4 |
| 20260510133023 | 16 | 65 | 0.0 | 3.2 | 0.00 | 0.03 | 0.00 | 64 | 1016.3 |
| 20260510132549 | 16 | 53 | 0.0 | 3.2 | 0.00 | 0.03 | 0.00 | 66 | 1016.2 |
| 20260510132031 | 16 | 70 | 0.0 | 3.2 | 0.00 | 0.03 | 0.00 | 65 | 1016.2 |
| 20260510131517 | 16 | 64 | 0.0 | 3.2 | 0.00 | 0.03 | 0.00 | 66 | 1016.1 |
| 20260510131043 | 16 | 80 | 0.0 | 3.2 | 0.00 | 0.03 | 0.00 | 68 | 1016.1 |
| 20260510130528 | 16 | 66 | 0.0 | 3.2 | 0.00 | 0.03 | 0.00 | 68 | 1016.0 |
| 20260510130034 | 16 | 40 | 0.0 | 1.6 | 0.00 | 0.03 | 0.00 | 69 | 1015.9 |
| 20260510125520 | 16 | 78 | 0.0 | 3.2 | 0.00 | 0.03 | 0.00 | 69 | 1015.6 |
| 20260510125023 | 16 | 76 | 0.0 | 3.2 | 0.00 | 0.03 | 0.00 | 70 | 1015.5 |
| 20260510124529 | 16 | 71 | 0.0 | 1.6 | 0.00 | 0.03 | 0.00 | 71 | 1015.4 |
| 20260510124019 | 16 | 59 | 0.0 | 1.6 | 0.00 | 0.03 | 0.00 | 72 | 1015.4 |
| 20260510123525 | 15 | 42 | 0.0 | 3.2 | 0.00 | 0.03 | 0.00 | 73 | 1015.2 |
| 20260510123029 | 15 | 54 | 0.0 | 3.2 | 0.00 | 0.03 | 0.00 | 74 | 1015.0 |
| 20260510122534 | 15 | 41 | 0.0 | 1.6 | 0.00 | 0.03 | 0.00 | 75 | 1015.1 |
| 20260510122017 | 15 | 30 | 0.0 | 1.6 | 0.00 | 0.03 | 0.00 | 76 | 1015.1 |
| 20260510121543 | 15 | 54 | 0.0 | 0.0 | 0.00 | 0.03 | 0.00 | 78 | 1015.1 |
| 20260510121025 | 15 | 61 | 0.0 | 0.0 | 0.00 | 0.03 | 0.00 | 79 | 1015.1 |
| 20260510120531 | 15 | 40 | 0.0 | 0.0 | 0.00 | 0.03 | 0.00 | 79 | 1015.0 |
| 20260510120057 | 15 | 80 | 0.0 | 0.0 | 0.00 | 0.03 | 0.00 | 79 | 1014.9 |
| 20260510115542 | 14 | 73 | 0.0 | 0.0 | 0.00 | 0.03 | 0.00 | 80 | 1014.7 |
| 20260510115024 | 14 | 91 | 0.0 | 0.0 | 0.00 | 0.03 | 0.00 | 81 | 1014.7 |
| 20260510114530 | 14 | 47 | 0.0 | 0.0 | 0.00 | 0.03 | 0.00 | 81 | 1014.6 |
| 20260510114036 | 14 | 5 | 0.0 | 0.0 | 0.00 | 0.03 | 0.00 | 82 | 1014.5 |
| 20260510113527 | 14 | 67 | 0.0 | 0.0 | 0.00 | 0.03 | 0.00 | 82 | 1014.3 |
| 20260510113052 | 15 | 67 | 0.0 | 0.0 | 0.00 | 0.03 | 0.00 | 82 | 1014.2 |
| 20260510112517 | 15 | 96 | 0.0 | 0.0 | 0.00 | 0.03 | 0.00 | 82 | 1014.1 |
| 20260510112021 | 15 | 65 | 0.0 | 0.0 | 0.00 | 0.03 | 0.00 | 81 | 1014.0 |
| 20260510111547 | 15 | 65 | 0.0 | 0.0 | 0.00 | 0.03 | 0.00 | 81 | 1014.0 |
| 20260510111032 | 15 | 45 | 0.0 | 0.0 | 0.00 | 0.03 | 0.00 | 81 | 1014.0 |
| 20260510110518 | 15 | 45 | 0.0 | 0.0 | 0.00 | 0.03 | 0.00 | 81 | 1014.0 |
| 20260510110024 | 15 | 59 | 0.0 | 0.0 | 0.00 | 0.03 | 0.00 | 81 | 1014.0 |
| 20260510105530 | 15 | 60 | 0.0 | 1.6 | 0.00 | 0.03 | 0.00 | 81 | 1014.1 |
| 20260510105056 | 15 | 41 | 0.0 | 1.6 | 0.00 | 0.03 | 0.00 | 81 | 1014.1 |
| 20260510104521 | 15 | 41 | 0.0 | 0.0 | 0.00 | 0.03 | 0.00 | 80 | 1014.1 |
| 20260510104027 | 15 | 41 | 0.0 | 0.0 | 0.00 | 0.03 | 0.00 | 80 | 1014.0 |
| 20260510103517 | 15 | 46 | 0.0 | 0.0 | 0.00 | 0.03 | 0.00 | 80 | 1013.9 |
| 20260510103023 | 15 | 44 | 0.0 | 0.0 | 0.00 | 0.03 | 0.00 | 80 | 1013.8 |
| 20260510102529 | 15 | 15 | 0.0 | 0.0 | 0.00 | 0.03 | 0.00 | 80 | 1013.8 |
| 20260510102032 | 15 | 98 | 0.0 | 0.0 | 0.00 | 0.03 | 0.00 | 79 | 1013.7 |
| 20260510101518 | 15 | 28 | 0.0 | 0.0 | 0.00 | 0.03 | 0.00 | 79 | 1013.4 |
| 20260510101022 | 15 | 54 | 0.0 | 0.0 | 0.00 | 0.03 | 0.00 | 79 | 1013.2 |
| 20260510100526 | 15 | 76 | 0.0 | 0.0 | 0.00 | 0.03 | 0.00 | 79 | 1013.1 |
| 20260510100031 | 15 | 67 | 0.0 | 0.0 | 0.00 | 0.03 | 0.00 | 79 | 1013.1 |
| 20260510095517 | 16 | 46 | 0.0 | 0.0 | 0.00 | 0.03 | 0.00 | 79 | 1013.1 |
| 20260510095020 | 16 | 42 | 0.0 | 0.0 | 0.00 | 0.03 | 0.00 | 78 | 1013.1 |
| 20260510094547 | 16 | 336 | 0.0 | 0.0 | 0.00 | 0.03 | 0.00 | 78 | 1013.1 |
| 20260510094031 | 16 | 27 | 0.0 | 0.0 | 0.00 | 0.03 | 0.00 | 78 | 1013.0 |
| 20260510093521 | 16 | 40 | 0.0 | 0.0 | 0.00 | 0.03 | 0.00 | 77 | 1012.9 |
| 20260510093025 | 16 | 46 | 0.0 | 0.0 | 0.00 | 0.03 | 0.00 | 77 | 1012.8 |
| 20260510092551 | 16 | 16 | 0.0 | 0.0 | 0.00 | 0.03 | 0.00 | 76 | 1012.7 |
| 20260510092032 | 16 | 53 | 0.0 | 0.0 | 0.00 | 0.03 | 0.00 | 75 | 1012.7 |
| 20260510091539 | 16 | 46 | 0.0 | 0.0 | 0.00 | 0.03 | 0.00 | 75 | 1012.5 |
| 20260510091044 | 16 | 76 | 0.0 | 0.0 | 0.00 | 0.03 | 0.00 | 74 | 1012.4 |
| 20260510090529 | 17 | 77 | 0.0 | 0.0 | 0.00 | 0.03 | 0.00 | 73 | 1012.2 |
| 20260510090034 | 17 | 76 | 0.0 | 0.0 | 0.00 | 0.03 | 0.00 | 73 | 1012.3 |
| 20260510085521 | 17 | 82 | 0.0 | 0.0 | 0.00 | 0.03 | 0.00 | 73 | 1012.3 |
| 20260510085025 | 17 | 82 | 0.0 | 0.0 | 0.00 | 0.03 | 0.00 | 72 | 1012.2 |
| 20260510084531 | 17 | 78 | 0.0 | 0.0 | 0.00 | 0.03 | 0.00 | 72 | 1012.2 |
| 20260510084016 | 17 | 77 | 0.0 | 0.0 | 0.00 | 0.03 | 0.00 | 72 | 1012.2 |
| 20260510083527 | 17 | 48 | 0.0 | 0.0 | 0.00 | 0.03 | 0.00 | 72 | 1012.2 |
| 20260510083033 | 17 | 49 | 0.0 | 0.0 | 0.00 | 0.03 | 0.00 | 72 | 1012.1 |
| 20260510082520 | 17 | 42 | 0.0 | 0.0 | 0.00 | 0.03 | 0.00 | 71 | 1012.0 |
| 20260510082023 | 17 | 57 | 0.0 | 0.0 | 0.00 | 0.03 | 0.00 | 71 | 1012.0 |
| 20260510081529 | 17 | 57 | 0.0 | 0.0 | 0.00 | 0.03 | 0.00 | 70 | 1012.0 |
| 20260510081035 | 17 | 57 | 0.0 | 0.0 | 0.00 | 0.03 | 0.00 | 70 | 1011.9 |
| 20260510080542 | 17 | 57 | 0.0 | 0.0 | 0.00 | 0.03 | 0.00 | 70 | 1012.0 |
| 20260510080026 | 17 | 57 | 0.0 | 0.0 | 0.00 | 0.03 | 0.00 | 69 | 1012.0 |
| 20260510075532 | 17 | 57 | 0.0 | 0.0 | 0.00 | 0.03 | 0.00 | 69 | 1011.9 |
| 20260510075034 | 17 | 57 | 0.0 | 0.0 | 0.00 | 0.03 | 0.00 | 69 | 1011.9 |
| 20260510074520 | 17 | 57 | 0.0 | 0.0 | 0.00 | 0.03 | 0.00 | 70 | 1011.8 |
| 20260510074030 | 17 | 57 | 0.0 | 0.0 | 0.00 | 0.03 | 0.00 | 70 | 1011.8 |
| 20260510073536 | 17 | 57 | 0.0 | 0.0 | 0.00 | 0.03 | 0.00 | 71 | 1011.7 |
| 20260510073021 | 17 | 57 | 0.0 | 0.0 | 0.00 | 0.03 | 0.00 | 72 | 1011.6 |
| 20260510072527 | 17 | 57 | 0.0 | 0.0 | 0.00 | 0.03 | 0.00 | 72 | 1011.7 |
| 20260510072030 | 17 | 57 | 0.0 | 0.0 | 0.00 | 0.03 | 0.00 | 72 | 1011.7 |
| 20260510071536 | 17 | 57 | 0.0 | 0.0 | 0.00 | 0.03 | 0.00 | 72 | 1011.8 |
| 20260510071022 | 17 | 57 | 0.0 | 0.0 | 0.00 | 0.03 | 0.00 | 73 | 1011.8 |
| 20260510070547 | 17 | 57 | 0.0 | 0.0 | 0.00 | 0.03 | 0.00 | 73 | 1011.7 |
| 20260510070032 | 17 | 57 | 0.0 | 0.0 | 0.00 | 0.03 | 0.00 | 73 | 1011.8 |
| 20260510065519 | 17 | 57 | 0.0 | 0.0 | 0.00 | 0.03 | 0.00 | 73 | 1011.8 |
| 20260510065023 | 17 | 57 | 0.0 | 0.0 | 0.00 | 0.03 | 0.00 | 72 | 1011.7 |
| 20260510064534 | 17 | 57 | 0.0 | 0.0 | 0.00 | 0.03 | 0.00 | 72 | 1011.6 |
| 20260510064035 | 17 | 57 | 0.0 | 0.0 | 0.00 | 0.03 | 0.00 | 72 | 1011.6 |
| 20260510063521 | 17 | 57 | 0.0 | 0.0 | 0.00 | 0.03 | 0.00 | 72 | 1011.4 |
| 20260510063027 | 17 | 57 | 0.0 | 0.0 | 0.00 | 0.03 | 0.00 | 72 | 1011.4 |
| 20260510062534 | 17 | 57 | 0.0 | 0.0 | 0.00 | 0.03 | 0.00 | 71 | 1011.4 |
| 20260510062017 | 17 | 57 | 0.0 | 0.0 | 0.00 | 0.03 | 0.00 | 71 | 1011.4 |
| 20260510061524 | 17 | 57 | 0.0 | 0.0 | 0.00 | 0.03 | 0.00 | 71 | 1011.4 |
| 20260510061026 | 17 | 57 | 0.0 | 0.0 | 0.00 | 0.03 | 0.00 | 70 | 1011.3 |
| 20260510060532 | 17 | 57 | 0.0 | 0.0 | 0.00 | 0.03 | 0.00 | 69 | 1011.4 |
| 20260510060018 | 17 | 57 | 0.0 | 0.0 | 0.00 | 0.03 | 0.00 | 68 | 1011.4 |
| 20260510055529 | 18 | 57 | 0.0 | 0.0 | 0.00 | 0.03 | 0.00 | 67 | 1011.4 |
| 20260510055033 | 18 | 57 | 0.0 | 0.0 | 0.00 | 0.03 | 0.00 | 66 | 1011.4 |
| 20260510054518 | 18 | 57 | 0.0 | 0.0 | 0.00 | 0.03 | 0.00 | 65 | 1011.4 |
| 20260510054024 | 18 | 57 | 0.0 | 0.0 | 0.00 | 0.03 | 0.00 | 65 | 1011.3 |
| 20260510053529 | 18 | 57 | 0.0 | 0.0 | 0.00 | 0.03 | 0.00 | 64 | 1011.3 |
| 20260510053035 | 18 | 57 | 0.0 | 0.0 | 0.00 | 0.03 | 0.00 | 63 | 1011.3 |
| 20260510052521 | 18 | 57 | 0.0 | 0.0 | 0.00 | 0.05 | 0.00 | 64 | 1011.2 |
| 20260510052025 | 19 | 57 | 0.0 | 0.0 | 0.00 | 0.05 | 0.00 | 63 | 1011.3 |
| 20260510051531 | 19 | 57 | 0.0 | 0.0 | 0.00 | 0.05 | 0.00 | 64 | 1011.3 |
| 20260510051057 | 19 | 57 | 0.0 | 0.0 | 0.00 | 0.05 | 0.00 | 63 | 1011.4 |
| 20260510050540 | 19 | 57 | 0.0 | 0.0 | 0.00 | 0.05 | 0.00 | 64 | 1011.4 |
| 20260510050030 | 19 | 57 | 0.0 | 0.0 | 0.00 | 0.05 | 0.00 | 64 | 1011.4 |
| 20260510045535 | 19 | 57 | 0.0 | 0.0 | 0.00 | 0.05 | 0.00 | 63 | 1011.4 |
| 20260510045038 | 19 | 57 | 0.0 | 0.0 | 0.00 | 0.05 | 0.00 | 62 | 1011.3 |
| 20260510044523 | 19 | 57 | 0.0 | 0.0 | 0.00 | 0.05 | 0.00 | 63 | 1011.2 |
| 20260510044029 | 19 | 57 | 0.0 | 0.0 | 0.00 | 0.05 | 0.00 | 62 | 1011.1 |
| 20260510043534 | 19 | 25 | 0.0 | 0.0 | 0.00 | 0.05 | 0.00 | 62 | 1011.1 |
| 20260510043038 | 19 | 25 | 0.0 | 0.0 | 0.00 | 0.05 | 0.00 | 61 | 1011.1 |
| 20260510042544 | 19 | 19 | 0.0 | 0.0 | 0.00 | 0.05 | 0.00 | 61 | 1011.1 |
| 20260510042025 | 19 | 28 | 0.0 | 0.0 | 0.00 | 0.05 | 0.00 | 61 | 1011.0 |
| 20260510041532 | 19 | 28 | 0.0 | 0.0 | 0.00 | 0.05 | 0.00 | 61 | 1011.0 |
| 20260510041056 | 19 | 23 | 0.0 | 0.0 | 0.00 | 0.05 | 0.00 | 61 | 1011.0 |
| 20260510040540 | 20 | 71 | 0.0 | 0.0 | 0.00 | 0.05 | 0.00 | 60 | 1011.0 |
| 20260510040028 | 20 | 57 | 0.0 | 0.0 | 0.00 | 0.05 | 0.00 | 58 | 1010.7 |
| 20260510035553 | 20 | 213 | 0.0 | 0.0 | 0.00 | 0.05 | 0.00 | 57 | 1010.2 |
| 20260510035035 | 20 | 194 | 0.0 | 0.0 | 0.00 | 0.05 | 0.00 | 58 | 1010.0 |
| 20260510034541 | 20 | 194 | 0.0 | 0.0 | 0.00 | 0.05 | 0.00 | 59 | 1010.0 |
| 20260510034026 | 20 | 194 | 0.0 | 0.0 | 0.00 | 0.05 | 0.00 | 60 | 1009.9 |
| 20260510033532 | 20 | 194 | 0.0 | 0.0 | 0.00 | 0.05 | 0.00 | 61 | 1009.8 |
| 20260510033037 | 20 | 194 | 0.0 | 0.0 | 0.00 | 0.05 | 0.00 | 61 | 1009.8 |
| 20260510032544 | 20 | 194 | 0.0 | 0.0 | 0.00 | 0.18 | 0.00 | 62 | 1009.9 |
| 20260510032025 | 20 | 194 | 0.0 | 0.0 | 0.00 | 0.18 | 0.00 | 63 | 1009.8 |
| 20260510031531 | 20 | 194 | 0.0 | 0.0 | 0.00 | 0.18 | 0.00 | 62 | 1009.8 |
| 20260510031036 | 20 | 194 | 0.0 | 0.0 | 0.00 | 0.18 | 0.00 | 63 | 1009.8 |
| 20260510030542 | 20 | 194 | 0.0 | 0.0 | 0.00 | 0.18 | 0.00 | 62 | 1009.8 |
| 20260510030030 | 20 | 194 | 0.0 | 0.0 | 0.00 | 0.18 | 0.00 | 60 | 1009.8 |
| 20260510025536 | 20 | 194 | 0.0 | 0.0 | 0.00 | 0.18 | 0.00 | 60 | 1009.7 |
| 20260510025038 | 20 | 194 | 0.0 | 0.0 | 0.00 | 0.18 | 0.00 | 59 | 1009.6 |
| 20260510024524 | 20 | 194 | 0.0 | 0.0 | 0.00 | 0.18 | 0.00 | 59 | 1009.5 |
| 20260510024027 | 21 | 194 | 0.0 | 0.0 | 0.00 | 0.18 | 0.00 | 59 | 1009.4 |
| 20260510023528 | 21 | 194 | 0.0 | 0.0 | 0.00 | 0.18 | 0.00 | 59 | 1009.4 |
| 20260510023033 | 21 | 194 | 0.0 | 0.0 | 0.00 | 0.18 | 0.00 | 58 | 1009.3 |
| 20260510022558 | 21 | 194 | 0.0 | 0.0 | 0.00 | 0.89 | 0.00 | 57 | 1009.1 |
| 20260510022040 | 21 | 194 | 0.0 | 0.0 | 0.00 | 0.89 | 0.00 | 55 | 1009.0 |
| 20260510021526 | 22 | 194 | 0.0 | 0.0 | 0.00 | 0.89 | 0.00 | 53 | 1008.9 |
| 20260510021047 | 22 | 194 | 0.0 | 0.0 | 0.00 | 0.89 | 0.00 | 52 | 1008.7 |
| 20260510020548 | 22 | 194 | 0.0 | 0.0 | 0.00 | 0.89 | 0.00 | 52 | 1008.7 |
| 20260510020032 | 22 | 194 | 0.0 | 0.0 | 0.00 | 0.89 | 0.00 | 50 | 1008.5 |
| 20260510015559 | 22 | 194 | 0.0 | 0.0 | 0.00 | 0.89 | 0.00 | 50 | 1008.3 |
| 20260510015023 | 23 | 194 | 0.0 | 0.0 | 0.00 | 0.89 | 0.00 | 51 | 1008.1 |
| 20260510014529 | 23 | 194 | 0.0 | 0.0 | 0.00 | 0.89 | 0.00 | 49 | 1008.1 |
| 20260510014034 | 23 | 194 | 0.0 | 0.0 | 0.00 | 0.89 | 0.00 | 48 | 1008.1 |
| 20260510013539 | 23 | 194 | 0.0 | 0.0 | 0.00 | 0.89 | 0.00 | 47 | 1008.0 |
| 20260510013024 | 23 | 194 | 0.0 | 0.0 | 0.00 | 0.89 | 0.00 | 47 | 1008.0 |
| 20260510012529 | 24 | 194 | 0.0 | 0.0 | 0.00 | 0.89 | 0.00 | 46 | 1007.9 |
| 20260510012032 | 24 | 194 | 0.0 | 0.0 | 0.00 | 0.89 | 0.00 | 45 | 1007.9 |
| 20260510011558 | 25 | 194 | 0.0 | 0.0 | 0.00 | 0.89 | 0.00 | 45 | 1007.8 |
| 20260510011041 | 25 | 194 | 0.0 | 0.0 | 0.00 | 0.89 | 0.00 | 43 | 1007.8 |
| 20260510010527 | 25 | 194 | 0.0 | 0.0 | 0.00 | 0.89 | 0.00 | 42 | 1007.7 |
| 20260510010032 | 25 | 194 | 0.0 | 0.0 | 0.00 | 0.89 | 0.00 | 41 | 1007.6 |
| 20260510005537 | 25 | 194 | 0.0 | 0.0 | 0.00 | 0.89 | 0.00 | 40 | 1007.6 |
| 20260510005025 | 25 | 194 | 0.0 | 0.0 | 0.00 | 0.89 | 0.00 | 39 | 1007.5 |
| 20260510004530 | 26 | 194 | 0.0 | 0.0 | 0.00 | 0.89 | 0.00 | 38 | 1007.4 |
| 20260510004035 | 26 | 194 | 0.0 | 0.0 | 0.00 | 0.89 | 0.00 | 37 | 1007.4 |
| 20260510003541 | 26 | 194 | 0.0 | 0.0 | 0.00 | 0.89 | 0.00 | 36 | 1007.4 |
| 20260510003026 | 26 | 194 | 0.0 | 0.0 | 0.00 | 0.89 | 0.00 | 36 | 1007.4 |
| 20260510002532 | 26 | 194 | 0.0 | 0.0 | 0.00 | 0.89 | 0.00 | 36 | 1007.4 |
| 20260510002035 | 26 | 174 | 0.0 | 0.0 | 0.00 | 0.89 | 0.00 | 35 | 1007.4 |
| 20260510001540 | 26 | 174 | 0.0 | 0.0 | 0.00 | 0.89 | 0.00 | 35 | 1007.4 |
| 20260510001026 | 26 | 200 | 0.0 | 0.0 | 0.00 | 0.89 | 0.00 | 33 | 1007.4 |
| 20260510000531 | 26 | 187 | 0.0 | 0.0 | 0.00 | 0.89 | 0.00 | 33 | 1007.5 |
| 20260510000056 | 27 | 194 | 0.0 | 0.0 | 0.00 | 0.89 | 0.00 | 33 | 1007.5 |
| 20260509235544 | 27 | 210 | 0.0 | 0.0 | 0.00 | 0.89 | 0.00 | 32 | 1007.4 |
| 20260509235026 | 27 | 203 | 0.0 | 0.0 | 0.00 | 0.89 | 0.00 | 34 | 1007.4 |
| 20260509234531 | 27 | 250 | 0.0 | 0.0 | 0.00 | 0.89 | 0.00 | 33 | 1007.4 |
| 20260509234036 | 27 | 199 | 0.0 | 0.0 | 0.00 | 0.89 | 0.00 | 31 | 1007.4 |
| 20260509233523 | 27 | 245 | 0.0 | 0.0 | 0.00 | 0.89 | 0.00 | 31 | 1007.4 |
| 20260509233030 | 27 | 234 | 0.0 | 0.0 | 0.00 | 0.89 | 0.00 | 32 | 1007.4 |
| 20260509232534 | 27 | 244 | 0.0 | 0.0 | 0.00 | 0.89 | 0.00 | 32 | 1007.3 |
| 20260509232040 | 27 | 254 | 0.0 | 0.0 | 0.00 | 0.89 | 0.00 | 32 | 1007.3 |
| 20260509231526 | 27 | 262 | 0.0 | 0.0 | 0.00 | 0.89 | 0.00 | 33 | 1007.4 |
| 20260509231034 | 27 | 201 | 0.0 | 0.0 | 0.00 | 0.89 | 0.00 | 33 | 1007.4 |
| 20260509230525 | 27 | 230 | 0.0 | 0.0 | 0.00 | 0.89 | 0.00 | 34 | 1007.5 |
| 20260509230051 | 27 | 185 | 0.0 | 0.0 | 0.00 | 0.89 | 0.00 | 33 | 1007.5 |
| 20260509225536 | 27 | 225 | 0.0 | 1.6 | 0.00 | 0.89 | 0.00 | 34 | 1007.4 |
| 20260509225040 | 27 | 196 | 0.0 | 1.6 | 0.00 | 0.89 | 0.00 | 32 | 1007.4 |
| 20260509224526 | 27 | 212 | 0.0 | 1.6 | 0.00 | 0.89 | 0.00 | 32 | 1007.4 |
| 20260509224032 | 27 | 231 | 0.0 | 1.6 | 0.00 | 0.89 | 0.00 | 31 | 1007.4 |
| 20260509223538 | 27 | 215 | 0.0 | 3.2 | 0.00 | 0.89 | 0.00 | 31 | 1007.4 |
| 20260509223044 | 28 | 241 | 0.0 | 3.2 | 0.00 | 0.89 | 0.00 | 32 | 1007.4 |
| 20260509222529 | 28 | 245 | 0.0 | 1.6 | 0.00 | 0.89 | 0.00 | 31 | 1007.5 |
| 20260509222035 | 28 | 190 | 0.0 | 1.6 | 0.00 | 0.89 | 0.00 | 28 | 1007.4 |
| 20260509221539 | 28 | 215 | 0.0 | 0.0 | 0.00 | 0.89 | 0.00 | 29 | 1007.4 |
| 20260509221023 | 28 | 227 | 0.0 | 0.0 | 0.00 | 0.89 | 0.00 | 30 | 1007.4 |
| 20260509220533 | 28 | 250 | 0.0 | 3.2 | 0.00 | 0.89 | 0.00 | 30 | 1007.4 |
| 20260509220101 | 28 | 240 | 0.0 | 3.2 | 0.00 | 0.89 | 0.00 | 29 | 1007.5 |
| 20260509215523 | 28 | 271 | 0.0 | 0.0 | 0.00 | 0.89 | 0.00 | 29 | 1007.4 |
| 20260509215029 | 28 | 197 | 0.0 | 1.6 | 0.00 | 0.89 | 0.00 | 28 | 1007.4 |
| 20260509214536 | 29 | 241 | 0.0 | 1.6 | 0.00 | 0.89 | 0.00 | 28 | 1007.4 |
| 20260509214101 | 29 | 283 | 0.0 | 1.6 | 0.00 | 0.89 | 0.00 | 29 | 1007.4 |
| 20260509213526 | 28 | 67 | 0.0 | 1.6 | 0.00 | 0.89 | 0.00 | 31 | 1007.4 |
| 20260509213033 | 28 | 203 | 0.0 | 1.6 | 0.00 | 0.89 | 0.00 | 29 | 1007.5 |
| 20260509212539 | 28 | 245 | 0.0 | 3.2 | 0.00 | 0.89 | 0.00 | 31 | 1007.5 |
| 20260509212025 | 28 | 236 | 0.0 | 3.2 | 0.00 | 0.89 | 0.00 | 30 | 1007.5 |
| 20260509211531 | 28 | 238 | 0.0 | 1.6 | 0.00 | 0.89 | 0.00 | 32 | 1007.5 |
| 20260509211037 | 27 | 259 | 0.0 | 1.6 | 0.00 | 0.89 | 0.00 | 31 | 1007.6 |
| 20260509210527 | 28 | 227 | 0.0 | 3.2 | 0.00 | 0.89 | 0.00 | 31 | 1007.7 |
| 20260509210053 | 28 | 221 | 0.0 | 3.2 | 0.00 | 0.89 | 0.00 | 31 | 1007.7 |
| 20260509205538 | 28 | 284 | 0.0 | 6.4 | 0.00 | 0.89 | 0.00 | 31 | 1007.7 |
| 20260509205022 | 28 | 213 | 0.0 | 6.4 | 0.00 | 0.89 | 0.00 | 33 | 1007.8 |
| 20260509204549 | 28 | 247 | 0.0 | 1.6 | 0.00 | 0.89 | 0.00 | 33 | 1007.8 |
| 20260509204034 | 28 | 244 | 0.0 | 1.6 | 0.00 | 0.89 | 0.00 | 32 | 1007.8 |
| 20260509203540 | 28 | 259 | 0.0 | 1.6 | 0.00 | 0.89 | 0.00 | 34 | 1007.8 |
| 20260509203026 | 28 | 230 | 0.0 | 1.6 | 0.00 | 0.89 | 0.00 | 33 | 1008.0 |
| 20260509202531 | 27 | 283 | 0.0 | 3.2 | 0.00 | 0.89 | 0.00 | 32 | 1007.9 |
| 20260509202036 | 28 | 194 | 0.0 | 1.6 | 0.00 | 0.89 | 0.00 | 31 | 1008.0 |
| 20260509201544 | 28 | 218 | 0.0 | 1.6 | 0.00 | 0.89 | 0.00 | 32 | 1008.1 |
| 20260509201029 | 28 | 286 | 0.0 | 3.2 | 0.00 | 0.89 | 0.00 | 31 | 1008.2 |
| 20260509200555 | 27 | 271 | 0.0 | 4.8 | 0.00 | 0.89 | 0.00 | 32 | 1008.2 |
| 20260509200023 | 27 | 189 | 1.6 | 4.8 | 0.00 | 0.89 | 0.00 | 32 | 1008.2 |
| 20260509195530 | 27 | 244 | 0.0 | 6.4 | 0.00 | 0.89 | 0.00 | 32 | 1008.4 |
| 20260509195035 | 28 | 202 | 1.6 | 6.4 | 0.00 | 0.89 | 0.00 | 31 | 1008.3 |
| 20260509194521 | 28 | 183 | 0.0 | 3.2 | 0.00 | 0.89 | 0.00 | 32 | 1008.4 |
| 20260509194048 | 28 | 288 | 0.0 | 3.2 | 0.00 | 0.89 | 0.00 | 32 | 1008.3 |
| 20260509193533 | 28 | 284 | 0.0 | 3.2 | 0.00 | 0.89 | 0.00 | 32 | 1008.3 |
| 20260509193038 | 28 | 232 | 0.0 | 3.2 | 0.00 | 0.89 | 0.00 | 32 | 1008.4 |
| 20260509192525 | 28 | 235 | 0.0 | 3.2 | 0.00 | 0.89 | 0.00 | 32 | 1008.4 |
| 20260509192031 | 28 | 259 | 0.0 | 1.6 | 0.00 | 0.89 | 0.00 | 34 | 1008.3 |
| 20260509191537 | 28 | 303 | 0.0 | 1.6 | 0.00 | 0.89 | 0.00 | 32 | 1008.4 |
| 20260509191027 | 28 | 220 | 0.0 | 3.2 | 0.00 | 0.89 | 0.00 | 31 | 1008.4 |
| 20260509190533 | 28 | 244 | 0.0 | 3.2 | 0.00 | 0.89 | 0.00 | 31 | 1008.4 |
| 20260509190039 | 28 | 199 | 0.0 | 1.6 | 0.00 | 0.89 | 0.00 | 32 | 1008.4 |
| 20260509185524 | 28 | 192 | 0.0 | 4.8 | 0.00 | 0.89 | 0.00 | 35 | 1008.4 |
| 20260509185030 | 28 | 229 | 0.0 | 4.8 | 0.00 | 0.89 | 0.00 | 34 | 1008.4 |
| 20260509184536 | 28 | 208 | 0.0 | 3.2 | 0.00 | 0.89 | 0.00 | 35 | 1008.5 |
| 20260509184042 | 28 | 225 | 0.0 | 1.6 | 0.00 | 0.89 | 0.00 | 34 | 1008.5 |
| 20260509183547 | 29 | 210 | 0.0 | 1.6 | 0.00 | 0.89 | 0.00 | 34 | 1008.4 |
| 20260509183033 | 28 | 312 | 0.0 | 4.8 | 0.00 | 0.89 | 0.00 | 34 | 1008.5 |
| 20260509182539 | 28 | 198 | 0.0 | 4.8 | 0.00 | 0.89 | 0.00 | 33 | 1008.5 |
| 20260509182025 | 28 | 236 | 0.0 | 0.0 | 0.00 | 0.89 | 0.00 | 36 | 1008.6 |
| 20260509181531 | 28 | 208 | 0.0 | 0.0 | 0.00 | 0.89 | 0.00 | 38 | 1008.6 |
| 20260509181040 | 27 | 250 | 0.0 | 1.6 | 0.00 | 0.89 | 0.00 | 38 | 1008.6 |
| 20260509180527 | 27 | 240 | 0.0 | 3.2 | 0.00 | 0.89 | 0.00 | 39 | 1008.6 |
| 20260509180032 | 27 | 263 | 0.0 | 3.2 | 0.00 | 0.89 | 0.00 | 37 | 1008.6 |
| 20260509175538 | 27 | 252 | 0.0 | 0.0 | 0.00 | 0.89 | 0.00 | 35 | 1008.6 |
| 20260509175044 | 28 | 257 | 0.0 | 0.0 | 0.00 | 0.89 | 0.00 | 36 | 1008.7 |
| 20260509174529 | 27 | 253 | 0.0 | 0.0 | 0.00 | 0.89 | 0.00 | 35 | 1008.7 |
| 20260509174035 | 27 | 113 | 0.0 | 0.0 | 0.00 | 0.89 | 0.00 | 37 | 1008.8 |
| 20260509173521 | 27 | 268 | 0.0 | 1.6 | 0.00 | 0.89 | 0.00 | 41 | 1008.8 |
| 20260509173027 | 26 | 257 | 0.0 | 3.2 | 0.00 | 0.89 | 0.00 | 41 | 1008.8 |
| 20260509172553 | 26 | 251 | 0.0 | 4.8 | 0.00 | 0.89 | 0.00 | 39 | 1008.9 |
| 20260509172038 | 26 | 225 | 0.0 | 4.8 | 0.00 | 0.89 | 0.00 | 40 | 1009.0 |
| 20260509171529 | 27 | 229 | 0.0 | 0.0 | 0.00 | 0.89 | 0.00 | 40 | 1008.9 |
| 20260509171035 | 26 | 252 | 0.0 | 0.0 | 0.00 | 0.89 | 0.00 | 43 | 1008.9 |
| 20260509170540 | 26 | 355 | 0.0 | 1.6 | 0.00 | 0.89 | 0.00 | 42 | 1009.0 |
| 20260509170026 | 26 | 117 | 0.0 | 1.6 | 0.00 | 0.89 | 0.00 | 41 | 1009.1 |
| 20260509165552 | 26 | 252 | 0.0 | 1.6 | 0.00 | 0.89 | 0.00 | 45 | 1009.1 |
| 20260509165035 | 25 | 234 | 0.0 | 1.6 | 0.00 | 0.89 | 0.00 | 44 | 1009.1 |
| 20260509164601 | 25 | 248 | 0.0 | 1.6 | 0.00 | 0.89 | 0.00 | 44 | 1009.1 |
| 20260509164026 | 25 | 254 | 0.0 | 1.6 | 0.00 | 0.89 | 0.00 | 49 | 1009.2 |
| 20260509163532 | 25 | 217 | 0.0 | 1.6 | 0.00 | 0.89 | 0.00 | 49 | 1009.2 |
| 20260509163038 | 24 | 244 | 0.0 | 6.4 | 0.00 | 0.89 | 0.00 | 50 | 1009.3 |
| 20260509162525 | 24 | 271 | 0.0 | 6.4 | 0.00 | 0.89 | 0.00 | 49 | 1009.2 |
| 20260509162029 | 24 | 198 | 0.0 | 3.2 | 0.00 | 0.89 | 0.00 | 52 | 1009.2 |
| 20260509161539 | 23 | 261 | 0.0 | 3.2 | 0.00 | 0.89 | 0.00 | 51 | 1009.2 |
| 20260509161025 | 23 | 232 | 0.0 | 3.2 | 0.00 | 0.89 | 0.00 | 52 | 1009.3 |
| 20260509160531 | 23 | 263 | 0.0 | 6.4 | 0.00 | 0.89 | 0.00 | 54 | 1009.3 |
| 20260509160037 | 23 | 244 | 0.0 | 6.4 | 0.00 | 0.89 | 0.00 | 54 | 1009.3 |
| 20260509155523 | 22 | 260 | 0.0 | 3.2 | 0.00 | 0.89 | 0.00 | 57 | 1009.2 |
| 20260509155047 | 22 | 214 | 0.0 | 1.6 | 0.00 | 0.89 | 0.00 | 57 | 1009.2 |
| 20260509154552 | 22 | 227 | 0.0 | 1.6 | 0.00 | 0.89 | 0.00 | 60 | 1009.1 |
| 20260509154037 | 22 | 216 | 0.0 | 1.6 | 0.00 | 0.89 | 0.00 | 62 | 1009.2 |
| 20260509153523 | 21 | 221 | 0.0 | 1.6 | 0.00 | 0.89 | 0.00 | 65 | 1009.1 |
| 20260509153029 | 21 | 244 | 0.0 | 1.6 | 0.00 | 0.89 | 0.00 | 65 | 1009.1 |
| 20260509152535 | 21 | 265 | 0.0 | 1.6 | 0.00 | 0.89 | 0.89 | 68 | 1009.1 |
| 20260509152023 | 21 | 218 | 0.0 | 1.6 | 0.00 | 0.89 | 0.89 | 69 | 1009.1 |
| 20260509151549 | 20 | 231 | 0.0 | 0.0 | 0.00 | 0.89 | 0.89 | 71 | 1009.2 |
| 20260509151034 | 20 | 223 | 0.0 | 1.6 | 0.00 | 0.89 | 0.89 | 74 | 1009.1 |
| 20260509150539 | 20 | 209 | 0.0 | 1.6 | 0.00 | 0.89 | 0.89 | 73 | 1009.1 |
| 20260509150024 | 19 | 250 | 0.0 | 1.6 | 0.00 | 0.89 | 0.89 | 77 | 1009.2 |
| 20260509145529 | 19 | 234 | 0.0 | 1.6 | 0.00 | 0.89 | 0.89 | 78 | 1009.2 |